Theta_e
299 300 299 300 301 301 298 296 293 291 294 300 299 305 305 306 307 308 308 308 308 308 308 308 309 309 310 312 314 318 322 335 335 335 336 336 336 335
298 298 299 299 300 301 299 298 296 294 290 298 299 303 305 305 307 308 308 308 308 307 308 308 310 310 309 310 311 316 321 327 332 332 333 334 333 332
298 298 298 299 298 299 299 299 298 297 292 296 300 303 304 304 305 306 307 307 307 309 308 309 309 310 310 310 309 310 313 319 329 330 331 331 330 330
297 297 297 297 298 299 298 298 297 298 297 295 298 299 301 303 303 304 305 306 306 307 308 308 308 309 309 309 309 310 311 314 318 327 328 328 328 329
296 296 297 297 297 298 298 298 298 297 297 296 296 298 299 300 301 303 305 305 305 307 307 308 308 309 310 309 309 309 309 310 313 320 324 325 325 325
297 297 296 297 297 298 297 297 297 297 297 296 294 296 297 298 298 297 299 302 302 305 306 306 307 309 309 309 309 310 309 309 311 313 317 317 317 317
297 297 297 296 298 297 296 296 296 295 295 294 292 295 294 293 293 295 294 296 299 302 303 305 306 310 312 312 314 314 311 310 312 312 312 312 311 313
297 297 297 296 296 296 296 296 297 295 293 291 292 292 294 294 294 294 293 293 291 300 301 302 303 303 308 311 311 311 313 312 312 313 313 311 311 308
298 297 296 295 296 297 296 296 296 296 296 293 291 293 293 296 296 294 293 293 293 296 298 295 301 300 307 313 309 310 312 311 311 312 311 309 308 306
298 298 297 297 297 296 296 295 296 296 297 295 293 294 295 296 295 294 295 294 295 297 298 293 299 299 307 313 311 310 310 308 309 309 308 307 305 303
298 298 298 297 295 294 295 294 294 295 296 295 294 295 295 295 296 296 293 292 291 293 298 296 298 301 306 312 314 310 309 307 307 307 307 305 303 302
297 298 296 295 293 293 294 293 292 292 292 292 293 293 294 295 296 297 295 291 290 290 297 296 300 302 302 312 309 312 312 306 305 304 304 303 302 308
295 295 296 294 292 292 293 294 292 292 292 290 291 291 292 293 294 296 295 293 290 290 296 296 301 304 305 305 307 308 308 305 306 305 303 303 303 309
295 296 296 293 292 292 293 292 292 292 290 290 290 290 290 291 292 293 294 294 294 293 296 298 301 306 305 302 301 306 305 307 307 305 305 302 302 301
296 295 293 292 292 293 293 292 292 293 291 289 288 289 290 291 292 292 293 293 295 303 304 301 306 307 307 304 303 303 303 305 307 308 305 306 306 304
296 296 294 292 292 293 293 294 293 292 291 290 290 292 293 291 289 291 289 290 295 302 305 307 306 306 303 307 305 303 304 302 306 306 306 306 308 307
292 294 293 292 291 292 292 293 292 292 291 291 291 290 290 289 289 290 290 290 291 296 301 306 307 308 309 309 304 303 303 303 306 305 304 303 307 309
291 291 290 290 290 290 290 290 290 291 291 291 290 289 288 288 287 289 289 289 289 293 297 301 304 302 303 304 307 303 304 304 304 305 304 302 304 309
291 290 290 290 289 289 290 289 289 290 291 290 289 289 288 288 288 288 288 289 289 291 296 298 299 302 298 296 302 305 303 304 304 304 305 305 303 304
291 290 289 289 289 289 289 289 289 289 290 290 288 288 287 287 288 288 288 288 289 291 293 296 297 296 299 297 297 299 300 304 303 301 298 299 298 298
290 289 289 289 289 289 289 289 290 289 288 289 287 287 287 286 287 289 289 287 289 291 291 293 297 290 304 304 298 297 300 300 304 302 301 301 302 303
290 289 289 289 289 289 289 289 289 289 287 288 286 287 286 286 286 287 288 289 290 292 293 295 299 299 300 299 296 297 297 298 299 299 299 301 305 302
291 290 289 288 289 289 288 288 288 287 287 288 287 287 286 285 286 288 289 290 291 292 294 294 297 299 297 298 296 298 300 300 302 301 300 298 299 300
Wind_Speed
7 7 5 4 4 3 3 4 4 7 13 7 12 14 14 14 17 18 19 24 29 29 27 26 25 26 25 25 25 23 22 25 24 24 25 24 23 22
5 6 6 5 5 4 4 5 6 7 9 13 15 18 17 15 19 19 20 28 25 26 26 27 26 26 26 25 25 24 23 23 27 28 26 24 24 23
6 7 7 6 6 6 6 7 8 8 12 13 15 17 20 19 19 19 18 18 16 22 26 27 27 27 27 27 26 26 26 22 26 28 28 28 25 24
8 8 9 7 9 7 7 9 10 11 12 16 16 16 19 21 20 21 16 15 17 24 27 27 28 28 28 28 26 25 25 25 23 29 29 28 26 22
7 8 8 8 9 9 10 11 10 10 12 13 16 13 15 16 18 19 18 18 15 25 26 25 25 27 28 27 27 26 24 25 22 25 28 27 25 24
6 7 8 8 9 12 11 13 13 14 14 13 12 14 14 12 12 15 18 15 17 17 21 24 28 28 30 30 30 30 28 25 23 22 23 22 21 19
7 7 7 10 14 12 11 13 15 13 13 13 14 16 13 11 12 12 14 17 18 15 15 16 15 14 14 18 22 25 27 25 24 23 27 26 23 24
8 9 9 11 11 15 16 17 18 17 18 13 13 16 20 13 13 12 14 14 18 11 16 18 15 14 15 17 23 19 20 24 25 27 29 27 25 23
10 10 10 9 12 12 17 21 20 21 21 17 16 17 18 18 17 18 16 16 16 14 18 20 13 15 15 17 21 20 23 22 25 27 29 27 26 24
10 11 11 11 11 13 16 18 18 18 17 14 15 17 17 19 19 18 20 20 17 13 15 20 11 14 15 16 18 23 21 21 25 25 25 28 26 24
9 10 11 12 10 13 16 19 20 18 17 23 27 27 27 28 25 16 14 14 16 14 12 14 13 15 13 14 11 14 18 19 23 26 27 26 23 21
10 10 10 10 12 14 15 18 19 20 19 19 17 19 20 18 27 17 14 14 15 16 13 10 14 8 7 9 7 3 5 14 22 22 24 25 24 12
9 10 9 7 12 14 16 15 17 19 20 15 14 14 14 15 13 14 15 14 15 17 17 12 12 11 9 3 1 3 5 7 7 12 23 24 19 13
9 9 10 8 13 16 15 14 18 19 11 12 12 13 13 13 14 16 19 17 17 22 22 16 11 8 6 4 2 2 4 6 9 10 11 15 15 7
9 10 13 13 13 14 12 16 18 11 12 12 12 12 12 14 18 17 19 21 21 18 14 18 8 6 3 2 4 4 8 6 9 12 10 11 10 6
8 9 9 12 12 13 13 11 10 11 11 11 12 13 12 13 14 14 15 16 15 7 7 10 11 8 7 7 6 9 8 7 8 10 10 10 10 6
9 10 9 10 11 11 11 12 10 11 12 11 12 13 13 13 13 14 13 15 13 11 7 4 8 6 4 7 5 8 10 10 11 12 13 9 7 8
9 9 9 10 11 12 12 12 11 12 11 13 12 11 12 13 13 14 13 13 13 12 9 6 3 5 1 5 6 9 7 10 10 12 11 11 7 6
8 8 9 10 11 11 12 12 12 11 14 12 13 12 12 13 15 13 13 13 13 13 11 9 8 1 6 3 3 6 11 9 11 10 9 7 6 5
7 8 10 10 11 11 11 11 12 11 11 13 13 13 12 13 13 12 12 13 13 11 13 11 10 8 4 3 4 6 10 14 12 9 7 7 8 13
8 9 9 10 10 10 11 11 12 11 9 12 12 13 13 12 13 12 13 17 15 11 12 11 10 10 5 3 8 9 10 22 12 10 8 7 7 6
8 9 9 10 10 10 10 11 11 12 10 10 11 12 11 12 13 14 12 12 12 11 10 9 11 9 8 8 9 10 9 10 16 21 17 10 2 6
9 9 10 10 9 9 10 11 11 11 11 10 10 11 11 11 12 12 12 12 11 11 10 10 8 8 8 7 7 8 11 8 6 8 10 13 14 16
Wind_Direction
31 19 352 357 333 342 308 313 318 321 319 325 327 319 319 317 316 314 313 310 310 304 304 301 298 296 296 294 293 294 306 218 209 221 211 209 212 214
21 9 355 356 309 300 293 267 266 280 277 305 307 309 312 313 311 314 311 307 302 301 298 297 297 293 290 289 288 285 277 265 210 213 214 208 205 209
15 5 5 352 341 318 312 306 302 297 282 286 295 303 307 309 309 312 308 306 303 303 302 301 296 292 287 283 281 279 279 276 244 211 208 206 201 203
2 355 358 352 336 325 315 302 300 297 289 288 297 301 304 306 306 305 305 304 303 301 299 296 292 285 280 276 272 269 267 267 269 218 208 203 194 196
349 340 338 334 335 331 315 305 301 291 288 291 292 298 291 300 306 304 303 300 296 301 296 297 292 285 281 275 268 265 257 254 252 230 208 198 189 182
333 326 320 321 317 330 320 315 309 307 300 292 292 288 292 300 291 299 302 302 304 304 300 292 285 277 271 270 267 265 259 244 238 231 210 187 174 153
320 308 305 307 302 310 315 323 314 306 304 300 294 297 298 294 294 295 290 297 296 299 291 294 293 294 288 269 265 256 248 240 230 216 177 169 175 179
304 311 313 302 304 311 315 305 301 302 300 296 292 291 293 294 292 289 288 288 293 288 289 291 294 279 278 279 278 255 244 222 211 201 186 181 180 181
304 309 314 319 311 311 317 315 308 303 294 294 288 287 293 292 297 290 286 281 279 282 283 280 282 272 271 270 268 262 248 205 200 199 186 177 177 166
298 305 307 308 306 311 320 317 315 311 306 303 292 287 287 293 290 286 286 282 274 267 264 274 273 267 265 266 271 272 219 199 194 190 182 170 166 166
295 297 304 306 312 304 314 319 315 314 314 303 296 292 290 287 284 287 283 285 285 278 266 271 271 264 260 268 263 256 215 198 194 185 178 165 155 150
294 294 279 284 299 296 310 318 315 321 319 308 308 303 300 293 296 283 286 282 283 284 262 254 258 246 253 236 238 234 222 202 177 170 162 148 139 152
297 307 311 311 291 287 290 301 322 316 316 312 308 308 310 306 299 292 286 279 277 268 263 260 263 238 230 287 297 173 160 146 143 145 139 137 147 162
294 304 307 306 291 287 285 313 309 314 318 310 311 313 312 310 305 299 294 287 272 261 261 244 248 250 210 187 213 147 147 153 144 141 136 137 144 135
304 313 293 279 277 285 314 301 298 330 325 318 315 311 311 305 304 305 305 302 290 267 238 220 226 232 211 217 171 164 142 149 151 133 133 149 154 154
308 305 307 279 277 301 308 315 329 326 328 318 314 312 313 315 314 315 314 319 317 317 221 212 217 235 253 241 180 162 153 143 143 135 134 131 145 166
307 304 315 320 320 322 323 323 330 323 326 328 321 323 322 320 319 322 323 328 330 337 337 224 214 209 218 202 160 171 147 141 141 137 129 137 136 166
301 314 321 322 322 324 323 327 327 325 327 328 328 328 325 323 323 325 328 336 334 340 353 355 115 121 154 49 70 151 138 140 136 139 138 134 120 114
312 321 321 323 322 321 321 324 325 328 322 331 329 333 327 325 326 329 334 335 339 342 350 358 8 23 108 101 47 37 130 131 130 132 126 120 106 112
322 323 322 322 319 320 322 323 323 327 327 330 331 333 333 329 328 335 336 335 340 342 347 1 13 6 32 57 92 65 88 130 127 110 97 76 79 91
325 323 322 320 317 320 319 320 321 325 323 321 334 331 336 334 331 336 335 339 341 348 351 354 353 336 23 65 79 73 62 59 84 112 118 112 128 140
323 321 322 316 314 314 316 316 320 322 328 326 330 327 334 331 330 333 337 340 343 343 350 349 356 11 26 49 61 70 70 75 71 73 61 65 190 160
322 321 318 317 310 314 315 317 316 319 321 329 322 330 332 328 328 327 331 339 345 345 354 358 4 17 31 46 54 78 93 95 109 99 71 42 60 65